Regional Weather Roundup
Issued by NWS

Home | Current Version | Previous Version | Text Only | Print | Product List | Glossary On
Versions: 1 2 3 4 5 6 7 8 9 10 11 12 13 14 15 16 17 18 19 20 21 22 23 24 25 26 27 28 29 30 31 32 33 34 35 36 37 38 39 40 41 42 43 44 45 46 47 48 49 50
000
ASUS43 KTOP 310408
RWRKS

WEATHER ROUNDUP FOR KANSAS
NATIONAL WEATHER SERVICE GOODLAND KS
1100 PM CDT SAT AUG 30 2014

NOTE:  "FAIR" INDICATES FEW OR NO CLOUDS BELOW 12,000 FEET WITH NO
SIGNIFICANT WEATHER AND/OR OBSTRUCTIONS TO VISIBILITY.

KSZ001>006-013>018-027>032-041>047-310500-
NORTHWEST KANSAS

CITY           SKY/WX    TMP DP  RH WIND       PRES   REMARKS
GOODLAND       CLEAR     71  57  61 S14       29.90R
HAYS           CLEAR     77  55  47 S14G20    29.87S
HILL CITY      CLEAR     77  57  50 S9        29.86R
RUSSELL        CLEAR     74  59  59 S12       29.86R
$$

KSZ061>065-074>080-084>089-310500-
SOUTHWEST KANSAS

CITY           SKY/WX    TMP DP  RH WIND       PRES   REMARKS
DODGE CITY     PTCLDY    74  53  48 S10       29.92R
ELKHART          N/A     74  52  46 SE17        N/A
GARDEN CITY    MOCLDY    77  51  40 S17G31    29.88F
GREAT BEND     PTCLDY    73  57  56 S12       29.89S
LIBERAL        MOCLDY    79  55  44 S13       29.94R
PRATT          PTCLDY    75  57  53 SE9       29.92S
$$

KSZ066>073-081>083-090>101-310500-
SOUTHEAST KANSAS

CITY           SKY/WX    TMP DP  RH WIND       PRES   REMARKS
CHANUTE        CLEAR     75  64  68 S9        29.91R
COFFEYVILLE    CLEAR     76  70  82 S5        29.91R
HUTCHINSON     CLEAR     74  60  61 SE6       29.89S
MEDICINE LODGE   N/A     78  61  55 SE6       29.89R
NEWTON         CLEAR     72  57  60 SE6       29.94S
PARSONS        CLEAR     77  69  76 S6        29.92R
WICHITA INTL   CLEAR     76  61  59 SE6       29.89S
WICHITA JABRA  CLEAR     75  61  61 SE3       29.90S
WICHITA MCCONL CLEAR     76  62  61 SE7       29.90S
WINFIELD       CLEAR     78  64  61 SE7       29.91S
$$

KSZ007>012-019>026-033>040-048>060-102>105-310500-
NORTHEAST KANSAS

CITY           SKY/WX    TMP DP  RH WIND       PRES   REMARKS
CONCORDIA      CLEAR     72  64  76 S9        29.86S
EMPORIA        CLEAR     72  59  63 S7        29.90R
LAWRENCE       CLEAR     71  65  81 E5        29.90S
MANHATTAN      CLEAR     74  63  68 CALM      29.87S
MARYSVILLE     CLEAR     72  64  78 SE7       29.87S
OLATHE IND     CLEAR     74  66  76 SE5       29.92R
OLATHE EXE     CLEAR     74  67  78 SE6       29.91S
SALINA         CLEAR     76  60  57 SE8       29.87S
TOPEKA BILLARD CLEAR     76  67  73 E5        29.89R
TOPEKA FORBES  CLEAR     72  65  78 SE5       29.89S
$$



USA.gov is the U.S. government's official web portal to all federal, state and local government web resources and services.